Zurück zum Katalog

STARLINK-36970

AktivKommunikationVLEO
NORAD 68071·PAYLOAD·🇺🇸 United States

Gestartet Mar 4, 2026 von Vandenberg Space Force Base

Loading…

Nächste Überflüge (nächste 24 Stunden)

TLE

AktuellSource: CelesTrak SupGP

Epoche: Sep 14, 2026, 21:09 UTC

1 68071C 26042C   26257.88173611  .00027159  00000+0  80239-3 0  2578
2 68071  53.1601  16.1185 0001131  61.4488 359.1728 15.34378656    13

Verfolge STARLINK-36970 in Echtzeit mit AllMySat

Download on the App Store